Theta_e
292 292 296 312 317 317 317 315 313 310 307 303 302 300 300 301 302 304 306 307 308 308 308 309 308 309 309 309 310 309 309 309 309 311 312 311 310 309 309 310 311 314 318
290 291 291 308 315 316 317 314 313 308 308 306 303 302 302 302 302 304 305 306 307 308 308 308 308 308 309 309 310 310 308 308 307 308 307 308 309 309 308 309 309 311 314
290 289 290 303 312 315 315 313 312 308 308 305 302 301 301 302 301 302 303 305 307 307 308 308 308 308 309 309 310 310 309 307 307 307 308 306 304 304 306 306 307 310 312
290 289 290 298 309 313 316 314 311 308 306 304 303 302 302 299 301 301 303 304 306 307 308 308 308 308 309 309 310 310 309 308 307 308 306 308 309 302 301 305 305 307 308
290 290 290 293 306 313 314 313 310 307 305 305 304 303 301 301 301 301 302 303 304 306 307 308 308 308 308 309 310 310 309 309 308 307 307 306 306 306 304 299 303 304 305
288 289 289 293 303 312 314 311 308 307 304 305 304 303 301 300 300 300 301 301 303 304 306 307 308 308 308 309 310 310 309 308 309 309 309 308 306 304 305 301 300 300 301
289 287 289 297 305 310 311 308 307 305 304 304 303 303 302 301 301 300 300 300 301 302 305 307 307 308 308 309 310 310 308 308 308 307 307 308 308 309 308 306 303 298 298
289 287 290 299 306 308 309 307 306 304 304 304 303 303 302 302 301 300 300 301 301 302 305 306 307 307 309 309 310 310 308 307 307 307 306 307 309 310 310 309 304 301 298
290 287 292 302 306 308 308 307 306 304 303 303 303 302 302 301 300 299 300 300 301 302 304 305 306 307 308 309 310 309 307 306 307 307 307 308 308 309 310 310 309 305 299
288 287 294 301 306 307 307 306 306 303 303 303 303 302 301 301 300 299 299 300 301 302 304 304 306 306 308 308 308 308 307 306 306 306 307 308 308 309 309 309 309 308 304
288 287 294 301 306 307 306 305 304 302 302 302 302 301 300 300 299 299 299 300 301 302 303 304 305 305 307 307 307 308 306 305 305 306 307 306 308 307 306 305 305 305 304
289 289 294 301 304 304 304 305 303 302 302 303 301 300 300 299 299 298 299 300 300 301 303 303 305 305 306 307 307 307 306 305 305 305 306 306 305 305 305 306 303 302 303
291 291 293 297 300 302 302 302 302 301 301 300 300 299 299 299 298 298 299 300 300 301 302 303 304 305 306 307 307 307 307 306 305 305 306 305 305 304 304 302 302 302 301
292 292 293 293 296 299 301 301 300 299 299 300 299 299 298 298 298 298 299 299 300 300 302 303 303 304 306 307 307 306 308 307 306 306 306 305 305 304 303 302 300 301 299
290 292 293 293 294 296 297 298 298 298 299 298 298 298 298 298 297 297 298 298 299 300 301 302 303 303 305 306 307 306 307 307 306 305 305 305 300 296 300 302 301 300 298
290 291 292 293 294 294 295 296 295 296 297 297 297 296 296 296 296 296 297 297 298 298 300 300 302 302 303 299 299 303 305 306 306 305 304 303 292 296 295 297 297 300 299
290 291 292 293 294 295 296 295 295 294 295 295 294 295 295 296 296 296 296 296 297 297 298 299 301 301 302 296 297 297 304 305 306 305 303 300 299 296 300 295 295 295 296
289 289 290 292 293 294 295 295 294 294 294 294 294 294 294 295 294 295 296 295 296 297 297 298 299 300 300 295 296 295 304 304 305 304 302 301 299 299 299 299 298 298 299
290 291 290 290 292 293 294 294 293 293 293 293 293 293 295 293 293 294 294 295 295 295 296 296 297 299 299 294 295 299 303 300 301 302 302 301 299 294 295 298 297 296 296
290 290 290 289 290 292 293 293 292 292 293 293 293 293 294 294 294 294 294 292 296 294 294 293 297 293 298 293 294 300 301 300 298 298 298 290 298 292 294 299 296 292 293
289 289 289 290 290 291 292 291 290 291 292 290 290 292 293 293 294 294 291 293 291 292 292 291 292 293 295 295 295 296 300 299 294 293 291 291 293 293 294 296 296 296 292
288 288 289 288 288 289 291 290 289 290 290 289 289 289 289 292 292 292 290 290 291 291 289 289 289 289 291 291 293 294 297 298 296 292 290 290 291 293 294 294 294 293 290
288 287 288 287 285 284 289 289 288 287 286 287 288 288 287 288 289 291 289 290 290 291 290 290 290 288 288 290 292 293 294 295 293 290 292 293 293 293 293 293 293 288 290
286 284 282 282 283 281 284 286 285 286 286 286 286 287 288 287 287 289 290 291 290 290 289 290 290 289 288 289 290 289 293 289 290 289 289 291 290 291 290 288 290 289 290
282 281 282 283 283 282 283 281 284 286 286 286 286 287 288 288 288 289 290 291 292 293 290 291 292 290 289 291 291 290 291 291 289 287 287 287 287 287 287 286 287 287 287
280 280 281 281 283 282 281 280 283 286 286 286 286 287 287 287 288 288 286 289 290 291 292 292 292 290 293 291 291 292 292 291 290 287 286 287 288 289 288 288 287 286 287
Wind_Speed
10 9 10 14 14 14 16 16 15 14 11 6 5 4 4 4 3 3 4 4 4 3 3 3 3 2 4 3 3 2 3 3 2 1 4 6 11 12 10 9 9 12 11
8 8 9 13 16 18 18 17 17 16 13 9 4 3 4 2 2 3 4 4 4 4 3 4 3 2 2 4 4 3 2 2 2 1 1 3 6 8 10 9 9 11 9
14 9 9 13 15 19 20 18 17 17 14 12 8 5 5 4 3 2 2 3 4 4 3 4 3 2 2 3 3 2 3 2 4 3 2 2 3 1 6 11 10 11 9
10 8 12 11 16 17 17 17 17 17 14 16 12 11 6 5 4 4 3 4 4 4 3 4 4 3 1 3 3 2 2 1 2 2 5 5 4 3 3 6 9 11 11
11 13 15 16 17 16 18 17 17 17 17 17 15 11 8 4 4 4 7 4 4 4 4 4 4 3 1 2 4 4 3 1 2 2 2 6 5 4 3 5 6 11 8
9 10 8 8 12 13 15 16 18 17 16 16 15 15 13 9 7 6 6 5 4 4 4 4 4 3 2 2 2 5 4 3 3 3 3 2 3 4 5 6 7 7 6
4 7 11 13 15 19 19 15 18 17 17 17 16 14 13 12 11 10 8 7 5 3 5 4 4 2 2 3 2 4 5 2 3 2 4 5 6 6 8 10 7 5 5
6 7 8 12 15 18 20 17 19 18 18 17 16 14 13 8 7 9 7 6 6 5 7 5 4 3 2 2 3 2 4 4 3 6 5 7 6 8 7 6 13 8 5
6 6 7 8 13 16 19 17 17 15 17 17 14 13 12 11 9 9 8 7 6 5 7 6 5 4 3 3 4 3 4 6 4 6 6 7 6 4 5 5 5 8 7
6 5 6 7 9 11 14 12 13 15 15 15 13 12 13 11 10 9 9 9 7 6 7 6 6 5 4 3 4 4 4 7 4 5 7 7 6 6 4 3 4 6 10
6 6 5 7 12 11 11 11 12 14 14 14 13 13 11 11 10 9 8 9 8 8 7 6 6 6 5 4 5 5 5 7 7 6 7 7 7 5 4 4 5 6 6
6 6 6 10 12 12 12 13 11 12 13 13 12 12 11 10 10 9 9 9 9 8 8 7 6 6 6 5 5 5 5 7 7 7 8 7 5 6 5 5 6 6 6
7 6 6 8 10 10 9 11 10 10 10 11 12 11 11 11 10 9 9 9 10 8 7 7 7 6 6 6 5 5 6 6 7 7 8 8 8 6 5 5 6 6 6
7 5 5 5 7 7 7 8 9 9 10 10 11 12 12 12 10 9 10 10 9 10 8 7 6 6 5 5 6 6 6 6 7 6 6 7 7 8 8 6 6 7 7
7 6 6 5 5 7 6 6 7 9 10 11 11 11 10 10 10 9 9 9 9 9 9 8 6 6 5 4 6 5 6 6 7 6 6 5 6 8 7 7 7 9 6
6 5 6 6 6 6 6 6 7 8 9 9 10 9 11 11 10 10 10 9 9 9 8 8 8 7 4 8 8 7 5 6 7 7 5 5 5 6 9 7 9 10 11
6 5 5 6 6 7 7 8 8 7 7 8 8 9 10 11 12 11 11 10 10 9 9 8 8 7 5 9 9 10 5 5 5 7 6 5 4 6 6 7 6 5 3
7 5 5 4 5 5 7 7 7 8 8 7 8 8 10 10 10 11 11 10 9 11 9 8 7 7 5 11 11 10 6 5 6 6 6 6 6 6 7 7 6 5 5
2 2 3 3 4 6 6 8 8 7 7 8 9 9 10 11 11 11 11 9 9 7 8 7 9 8 6 11 11 9 6 5 6 5 6 6 6 8 9 7 6 4 4
1 1 4 3 4 5 6 7 8 9 10 10 10 9 10 11 12 12 11 5 8 8 7 7 8 7 7 11 9 8 5 5 4 4 5 7 7 12 13 8 7 7 5
2 2 3 3 3 6 7 7 6 8 6 6 7 9 9 11 11 10 5 9 7 8 7 7 6 6 6 9 13 8 5 5 4 4 3 2 7 12 13 8 7 6 6
3 3 4 3 2 4 6 7 7 6 7 7 8 8 8 8 8 11 7 7 9 9 8 7 4 2 5 8 10 9 6 8 5 4 3 3 6 7 9 7 6 9 6
1 1 4 2 2 1 4 5 2 6 6 7 8 8 8 8 8 11 10 8 9 9 8 8 7 5 4 4 11 11 9 10 5 3 5 9 8 9 7 8 9 8 4
0 4 3 2 2 3 4 5 5 6 6 6 6 7 10 8 7 6 8 9 10 9 9 9 8 7 6 6 5 5 6 8 6 7 4 5 6 5 4 4 5 4 5
2 3 4 4 4 4 6 5 5 6 6 5 6 7 7 11 10 9 9 10 9 12 12 10 11 12 10 9 11 11 8 6 8 8 3 2 2 3 3 2 4 3 4
4 3 5 5 6 7 7 3 6 7 7 6 6 7 7 7 8 8 4 1 6 13 14 16 14 7 9 18 19 18 17 17 18 4 3 4 4 6 5 5 4 4 6
Wind_Direction
240 221 206 202 192 184 179 177 171 173 159 155 158 153 164 160 168 171 163 155 137 146 134 110 82 49 65 55 57 103 84 36 355 152 63 66 40 44 48 39 27 24 32
222 220 196 188 193 189 185 178 180 168 172 168 147 141 142 157 141 155 162 163 151 152 155 123 102 68 79 55 57 79 131 86 2 120 107 49 43 30 33 43 40 35 38
225 216 190 191 188 191 189 181 177 172 171 160 127 103 97 94 118 152 157 179 167 154 165 125 115 95 89 55 58 46 104 139 55 43 124 126 84 358 9 33 40 44 44
224 199 192 189 190 192 186 180 174 169 165 157 156 163 165 150 176 157 160 164 167 149 169 139 128 115 124 83 55 25 65 176 139 91 53 66 113 111 92 36 45 48 44
207 206 196 197 195 179 181 176 170 168 163 167 171 166 158 135 137 140 151 155 164 154 166 148 144 134 128 82 83 60 57 65 103 106 120 73 67 58 98 95 83 62 43
215 220 197 169 177 175 175 170 169 171 164 167 167 171 161 149 147 148 158 164 165 157 169 158 153 145 140 109 69 84 64 73 81 105 113 121 137 129 125 107 86 79 40
241 206 180 175 169 174 179 169 168 170 168 168 169 170 165 161 167 165 167 164 162 169 178 165 163 169 154 125 92 82 88 50 103 67 95 102 110 122 119 116 88 91 35
235 207 194 179 173 173 178 172 173 167 169 167 169 169 165 166 164 167 165 171 175 159 161 165 157 155 133 125 107 84 89 96 91 108 96 107 113 125 134 127 131 103 69
224 199 171 175 168 171 180 176 171 166 169 168 164 166 163 158 167 170 166 166 161 153 156 161 155 159 153 139 116 100 101 100 105 104 104 113 109 104 119 118 109 136 127
190 162 160 154 161 168 172 160 166 166 162 162 162 164 167 168 164 161 168 164 158 151 155 156 156 157 148 143 120 102 103 107 110 114 117 111 106 98 84 90 92 107 125
159 150 143 138 160 164 163 158 155 157 161 161 161 161 165 163 158 164 163 165 155 159 159 158 155 153 152 154 126 114 124 119 125 121 123 112 118 109 102 90 85 92 104
113 121 124 150 160 163 170 165 157 161 167 164 160 161 155 155 161 162 163 154 159 163 161 157 153 154 151 153 146 136 134 134 138 134 123 122 108 96 99 99 95 101 112
92 97 117 141 159 162 161 169 158 160 153 150 150 147 158 164 166 160 158 158 154 159 154 152 161 155 157 155 157 146 144 144 148 149 144 144 130 125 122 104 107 109 110
108 109 116 136 154 169 164 156 153 149 149 151 156 160 164 166 163 157 158 159 158 155 158 163 159 154 158 157 159 152 146 141 150 152 147 150 145 141 136 125 117 120 115
113 124 139 148 156 163 152 145 147 149 155 156 159 164 158 154 149 150 153 151 157 162 160 154 149 159 164 161 163 154 145 136 145 150 152 151 144 142 145 144 146 138 129
115 128 137 152 165 169 161 153 152 153 153 159 166 154 152 150 154 150 155 156 157 154 154 159 159 166 165 170 156 147 145 145 146 149 154 150 145 151 146 141 156 164 152
124 147 170 184 180 180 165 168 155 136 152 159 153 154 155 158 163 159 156 160 161 152 167 167 162 166 165 168 156 149 149 150 146 151 153 153 153 155 153 144 153 146 132
123 140 165 184 198 177 165 140 147 160 159 159 159 157 159 163 161 158 165 159 160 168 168 164 163 160 168 176 155 157 151 156 154 158 158 160 163 167 155 152 166 177 189
17 124 155 169 162 170 165 149 151 155 156 170 169 169 168 159 159 168 166 165 152 157 163 164 163 166 176 179 164 153 148 157 161 151 152 158 163 168 159 157 168 180 207
189 50 78 107 140 173 157 153 166 166 185 181 178 167 167 168 172 171 164 149 161 163 152 159 173 164 158 173 165 163 148 150 148 147 146 166 172 165 173 168 168 190 204
148 84 74 89 130 159 155 177 156 195 184 161 157 165 170 168 169 162 157 155 148 146 154 161 165 160 158 174 184 180 155 154 143 154 165 175 173 172 177 163 173 192 156
58 63 65 9 28 141 163 188 198 173 166 163 166 169 167 165 164 160 153 147 151 155 162 154 141 139 161 155 183 183 154 149 149 176 170 170 172 181 180 176 165 157 139
71 88 120 74 4 167 199 221 200 163 160 163 180 174 162 164 162 165 162 158 162 167 165 170 167 162 162 157 168 186 165 157 137 159 176 162 174 172 175 191 168 153 144
237 164 149 170 258 258 215 201 175 157 160 174 170 169 172 166 160 165 171 171 176 173 168 172 174 166 168 169 164 169 173 131 117 129 127 149 140 145 134 132 174 173 171
209 195 234 211 237 227 226 210 185 159 171 169 162 181 184 179 174 183 181 186 193 181 171 180 176 174 184 191 169 167 167 160 148 122 111 117 122 147 149 142 157 158 163
167 218 245 243 203 216 258 228 176 174 168 177 179 181 183 180 176 172 159 82 171 188 188 176 174 176 159 155 166 172 168 154 147 107 149 169 172 177 176 174 167 175 190